PIMOHWEATHER Station Historical Data
Daily Summary for January 18, 2020 Units:  Metric    English   Both
Daily Weekly Monthly Yearly
  High: Low: Average:
Temperature: 32.0 °C 25.0 °C 27.6 °C
Dew Point: 27.0 °C 23.0 °C 24.5 °C
Humidity: 95% 70% 83%
Wind Speed: 19km/h 0km/h 8.3km/h
Wind Gust: 20km/h - -
Wind- - SSE
Pressure: 1014.0 hPa 1009.5 hPa -
Precipitation: 0.00 mm    
 
 
Tabular Data for January 18, 2020
Time Temperature Dew Point Pressure Wind Wind Speed Wind Gust Humidity Rainfall Rate (Hourly) solar
00:04 26.0 °C 24.0 °C 1012.6 hPa North 12 km/h 16 km/h 89% 0.00 mm 0.00 W/m2
00:09 26.0 °C 24.0 °C 1012.6 hPa NNE 15 km/h 20 km/h 89% 0.00 mm 0.00 W/m2
00:14 26.0 °C 24.0 °C 1012.6 hPa North 14 km/h 16 km/h 89% 0.00 mm 0.00 W/m2
00:19 26.0 °C 24.0 °C 1012.6 hPa North 13 km/h 16 km/h 89% 0.00 mm 0.00 W/m2
00:24 26.0 °C 24.0 °C 1012.6 hPa North 10 km/h 12 km/h 89% 0.00 mm 0.00 W/m2
00:29 26.0 °C 24.0 °C 1012.6 hPa North 10 km/h 16 km/h 89% 0.00 mm 0.00 W/m2
00:34 26.0 °C 24.0 °C 1012.6 hPa North 13 km/h 16 km/h 90% 0.00 mm 0.00 W/m2
00:39 26.0 °C 24.0 °C 1012.4 hPa North 11 km/h 16 km/h 90% 0.00 mm 0.00 W/m2
00:44 26.0 °C 24.0 °C 1012.5 hPa NNE 8 km/h 12 km/h 90% 0.00 mm 0.00 W/m2
00:49 26.0 °C 24.0 °C 1012.3 hPa North 12 km/h 16 km/h 90% 0.00 mm 0.00 W/m2
00:54 26.0 °C 24.0 °C 1012.3 hPa NNE 10 km/h 16 km/h 90% 0.00 mm 0.00 W/m2
00:59 26.0 °C 24.0 °C 1012.3 hPa North 6 km/h 8 km/h 90% 0.00 mm 0.00 W/m2
01:04 26.0 °C 24.0 °C 1012.3 hPa NNE 10 km/h 12 km/h 90% 0.00 mm 0.00 W/m2
01:09 26.0 °C 24.0 °C 1012.3 hPa North 10 km/h 12 km/h 90% 0.00 mm 0.00 W/m2
01:14 26.0 °C 24.0 °C 1012.2 hPa North 8 km/h 8 km/h 91% 0.00 mm 0.00 W/m2
01:19 26.0 °C 24.0 °C 1012.0 hPa NNW 10 km/h 12 km/h 91% 0.00 mm 0.00 W/m2
01:24 26.0 °C 24.0 °C 1012.0 hPa North 12 km/h 16 km/h 91% 0.00 mm 0.00 W/m2
01:29 26.0 °C 24.0 °C 1012.0 hPa NNW 11 km/h 12 km/h 91% 0.00 mm 0.00 W/m2
01:34 26.0 °C 24.0 °C 1011.9 hPa North 13 km/h 16 km/h 91% 0.00 mm 0.00 W/m2
01:39 26.0 °C 24.0 °C 1011.6 hPa NNW 10 km/h 16 km/h 92% 0.00 mm 0.00 W/m2
01:44 26.0 °C 24.0 °C 1011.6 hPa NNW 9 km/h 16 km/h 92% 0.00 mm 0.00 W/m2
01:49 25.0 °C 24.0 °C 1011.6 hPa North 16 km/h 20 km/h 92% 0.00 mm 0.00 W/m2
01:54 25.0 °C 24.0 °C 1011.7 hPa NNW 13 km/h 16 km/h 92% 0.00 mm 0.00 W/m2
01:59 25.0 °C 24.0 °C 1011.7 hPa North 12 km/h 12 km/h 92% 0.00 mm 0.00 W/m2
02:04 25.0 °C 24.0 °C 1011.7 hPa North 12 km/h 16 km/h 93% 0.00 mm 0.00 W/m2
02:09 25.0 °C 24.0 °C 1011.5 hPa North 13 km/h 16 km/h 93% 0.00 mm 0.00 W/m2
02:14 25.0 °C 24.0 °C 1011.3 hPa NNW 13 km/h 16 km/h 93% 0.00 mm 0.00 W/m2
02:19 25.0 °C 24.0 °C 1011.3 hPa North 13 km/h 16 km/h 93% 0.00 mm 0.00 W/m2
02:24 25.0 °C 24.0 °C 1011.3 hPa North 10 km/h 16 km/h 93% 0.00 mm 0.00 W/m2
02:29 25.0 °C 24.0 °C 1011.3 hPa North 13 km/h 16 km/h 93% 0.00 mm 0.00 W/m2
02:34 25.0 °C 24.0 °C 1011.0 hPa North 13 km/h 16 km/h 93% 0.00 mm 0.00 W/m2
02:39 25.0 °C 24.0 °C 1011.0 hPa North 10 km/h 16 km/h 93% 0.00 mm 0.00 W/m2
02:44 25.0 °C 24.0 °C 1011.0 hPa North 15 km/h 16 km/h 93% 0.00 mm 0.00 W/m2
02:49 25.0 °C 24.0 °C 1011.0 hPa North 13 km/h 16 km/h 93% 0.00 mm 0.00 W/m2
02:54 25.0 °C 24.0 °C 1011.0 hPa NNE 15 km/h 20 km/h 93% 0.00 mm 0.00 W/m2
02:59 25.0 °C 24.0 °C 1011.0 hPa North 15 km/h 16 km/h 93% 0.00 mm 0.00 W/m2
03:04 25.0 °C 24.0 °C 1011.0 hPa North 11 km/h 16 km/h 93% 0.00 mm 0.00 W/m2
03:09 25.0 °C 24.0 °C 1011.0 hPa North 10 km/h 12 km/h 93% 0.00 mm 0.00 W/m2
03:14 25.0 °C 24.0 °C 1011.0 hPa North 12 km/h 16 km/h 93% 0.00 mm 0.00 W/m2
03:19 25.0 °C 24.0 °C 1011.0 hPa North 7 km/h 8 km/h 93% 0.00 mm 0.00 W/m2
03:24 25.0 °C 24.0 °C 1011.0 hPa North 12 km/h 16 km/h 94% 0.00 mm 0.00 W/m2
03:29 25.0 °C 24.0 °C 1011.0 hPa NNE 11 km/h 16 km/h 94% 0.00 mm 0.00 W/m2
03:34 25.0 °C 24.0 °C 1011.0 hPa North 15 km/h 16 km/h 94% 0.00 mm 0.00 W/m2
03:39 25.0 °C 24.0 °C 1011.0 hPa North 12 km/h 16 km/h 94% 0.00 mm 0.00 W/m2
03:44 25.0 °C 24.0 °C 1011.0 hPa North 13 km/h 16 km/h 94% 0.00 mm 0.00 W/m2
03:49 25.0 °C 24.0 °C 1011.0 hPa North 13 km/h 20 km/h 94% 0.00 mm 0.00 W/m2
03:54 25.0 °C 24.0 °C 1011.0 hPa NNE 13 km/h 20 km/h 94% 0.00 mm 0.00 W/m2
03:59 25.0 °C 24.0 °C 1011.0 hPa North 14 km/h 16 km/h 94% 0.00 mm 0.00 W/m2
04:04 25.0 °C 24.0 °C 1011.0 hPa North 10 km/h 16 km/h 94% 0.00 mm 0.00 W/m2
04:09 25.0 °C 24.0 °C 1011.0 hPa NNE 12 km/h 16 km/h 94% 0.00 mm 0.00 W/m2
04:14 25.0 °C 24.0 °C 1011.0 hPa North 12 km/h 16 km/h 94% 0.00 mm 0.00 W/m2
04:19 25.0 °C 24.0 °C 1011.0 hPa North 12 km/h 16 km/h 94% 0.00 mm 0.00 W/m2
04:24 25.0 °C 24.0 °C 1011.3 hPa North 13 km/h 16 km/h 94% 0.00 mm 0.00 W/m2
04:29 25.0 °C 24.0 °C 1011.0 hPa North 12 km/h 16 km/h 94% 0.00 mm 0.00 W/m2
04:34 25.0 °C 24.0 °C 1011.2 hPa NNE 10 km/h 16 km/h 94% 0.00 mm 0.00 W/m2
04:39 25.0 °C 24.0 °C 1011.3 hPa North 14 km/h 16 km/h 94% 0.00 mm 0.00 W/m2
04:44 25.0 °C 24.0 °C 1011.3 hPa North 15 km/h 20 km/h 94% 0.00 mm 0.00 W/m2
04:49 25.0 °C 24.0 °C 1011.3 hPa NNE 10 km/h 12 km/h 94% 0.00 mm 0.00 W/m2
04:54 25.0 °C 24.0 °C 1011.3 hPa NNE 13 km/h 16 km/h 94% 0.00 mm 0.00 W/m2
04:59 25.0 °C 24.0 °C 1011.5 hPa NNE 11 km/h 16 km/h 94% 0.00 mm 0.00 W/m2
05:04 25.0 °C 24.0 °C 1011.7 hPa NNE 10 km/h 12 km/h 94% 0.00 mm 0.00 W/m2
05:09 25.0 °C 24.0 °C 1011.7 hPa North 13 km/h 16 km/h 94% 0.00 mm 0.00 W/m2
05:14 25.0 °C 24.0 °C 1011.7 hPa North 12 km/h 16 km/h 95% 0.00 mm 0.00 W/m2
05:19 25.0 °C 24.0 °C 1011.7 hPa NNE 12 km/h 16 km/h 94% 0.00 mm 0.00 W/m2
05:24 25.0 °C 24.0 °C 1011.7 hPa North 10 km/h 16 km/h 94% 0.00 mm 0.00 W/m2
05:29 25.0 °C 24.0 °C 1011.7 hPa North 10 km/h 16 km/h 94% 0.00 mm 0.00 W/m2
05:34 25.0 °C 24.0 °C 1011.7 hPa North 13 km/h 16 km/h 94% 0.00 mm 0.00 W/m2
05:39 25.0 °C 24.0 °C 1011.7 hPa NNE 15 km/h 20 km/h 94% 0.00 mm 0.00 W/m2
05:44 25.0 °C 24.0 °C 1011.7 hPa North 10 km/h 16 km/h 94% 0.00 mm 0.00 W/m2
05:49 25.0 °C 24.0 °C 1011.7 hPa NNE 12 km/h 16 km/h 94% 0.00 mm 0.00 W/m2
05:54 25.0 °C 24.0 °C 1011.9 hPa North 10 km/h 12 km/h 94% 0.00 mm 0.00 W/m2
05:59 25.0 °C 24.0 °C 1011.9 hPa North 12 km/h 16 km/h 94% 0.00 mm 0.00 W/m2
06:04 25.0 °C 24.0 °C 1011.9 hPa North 10 km/h 12 km/h 93% 0.00 mm 0.00 W/m2
06:09 25.0 °C 24.0 °C 1012.0 hPa North 8 km/h 12 km/h 93% 0.00 mm 0.00 W/m2
06:14 25.0 °C 24.0 °C 1012.0 hPa North 12 km/h 12 km/h 93% 0.00 mm 0.00 W/m2
06:19 25.0 °C 24.0 °C 1012.0 hPa NNE 17 km/h 20 km/h 93% 0.00 mm 0.00 W/m2
06:24 25.0 °C 24.0 °C 1012.0 hPa North 12 km/h 16 km/h 94% 0.00 mm 0.00 W/m2
06:29 25.0 °C 24.0 °C 1012.2 hPa North 13 km/h 16 km/h 94% 0.00 mm 1.57 W/m2
06:34 25.0 °C 24.0 °C 1012.2 hPa North 12 km/h 12 km/h 94% 0.00 mm 4.42 W/m2
06:39 25.0 °C 24.0 °C 1012.3 hPa North 13 km/h 16 km/h 94% 0.00 mm 5.62 W/m2
06:44 25.0 °C 24.0 °C 1012.3 hPa North 13 km/h 16 km/h 94% 0.00 mm 6.80 W/m2
06:49 25.0 °C 24.0 °C 1012.3 hPa North 10 km/h 12 km/h 94% 0.00 mm 8.34 W/m2
06:54 25.0 °C 24.0 °C 1012.6 hPa North 15 km/h 16 km/h 94% 0.00 mm 11.50 W/m2
06:59 25.0 °C 24.0 °C 1012.7 hPa North 13 km/h 16 km/h 94% 0.00 mm 14.06 W/m2
07:04 25.0 °C 24.0 °C 1012.7 hPa North 12 km/h 16 km/h 94% 0.00 mm 20.34 W/m2
07:09 25.0 °C 24.0 °C 1012.9 hPa North 13 km/h 16 km/h 94% 0.00 mm 25.33 W/m2
07:14 25.0 °C 24.0 °C 1013.0 hPa North 9 km/h 12 km/h 94% 0.00 mm 30.24 W/m2
07:19 25.0 °C 24.0 °C 1013.0 hPa NNE 9 km/h 12 km/h 93% 0.00 mm 40.96 W/m2
07:24 26.0 °C 24.0 °C 1013.0 hPa NNE 7 km/h 12 km/h 93% 0.00 mm 48.43 W/m2
07:29 26.0 °C 24.0 °C 1013.0 hPa NNE 6 km/h 8 km/h 93% 0.00 mm 52.96 W/m2
07:34 26.0 °C 24.0 °C 1013.0 hPa NNE 10 km/h 12 km/h 93% 0.00 mm 52.86 W/m2
07:39 26.0 °C 24.0 °C 1013.3 hPa North 8 km/h 12 km/h 92% 0.00 mm 56.03 W/m2
07:44 26.0 °C 24.0 °C 1013.3 hPa NNE 7 km/h 8 km/h 92% 0.00 mm 55.67 W/m2
07:49 26.0 °C 25.0 °C 1013.3 hPa North 6 km/h 8 km/h 92% 0.00 mm 62.66 W/m2
07:54 26.0 °C 24.0 °C 1013.6 hPa North 8 km/h 16 km/h 91% 0.00 mm 76.09 W/m2
07:59 26.0 °C 24.0 °C 1013.6 hPa North 7 km/h 8 km/h 91% 0.00 mm 86.49 W/m2
08:04 27.0 °C 25.0 °C 1013.3 hPa NNE 6 km/h 8 km/h 90% 0.00 mm 114.60 W/m2
08:09 27.0 °C 25.0 °C 1013.7 hPa NE 5 km/h 8 km/h 89% 0.00 mm 114.65 W/m2
08:14 27.0 °C 25.0 °C 1013.7 hPa NNE 8 km/h 12 km/h 87% 0.00 mm 131.43 W/m2
08:19 27.0 °C 25.0 °C 1013.7 hPa North 10 km/h 12 km/h 87% 0.00 mm 130.58 W/m2
08:24 27.0 °C 25.0 °C 1013.7 hPa NW 10 km/h 12 km/h 86% 0.00 mm 96.86 W/m2
08:29 27.0 °C 25.0 °C 1013.7 hPa NW 11 km/h 12 km/h 87% 0.00 mm 141.91 W/m2
08:34 27.0 °C 25.0 °C 1013.7 hPa NNW 10 km/h 12 km/h 86% 0.00 mm 147.80 W/m2
08:39 28.0 °C 25.0 °C 1013.7 hPa NNW 9 km/h 12 km/h 85% 0.00 mm 142.71 W/m2
08:44 27.0 °C 25.0 °C 1013.9 hPa North 10 km/h 12 km/h 85% 0.00 mm 123.75 W/m2
08:49 28.0 °C 25.0 °C 1013.9 hPa North 12 km/h 12 km/h 85% 0.00 mm 151.59 W/m2
08:54 28.0 °C 25.0 °C 1014.0 hPa NW 9 km/h 12 km/h 84% 0.00 mm 110.81 W/m2
08:59 28.0 °C 25.0 °C 1013.9 hPa NNW 12 km/h 16 km/h 84% 0.00 mm 144.06 W/m2
09:04 28.0 °C 25.0 °C 1014.0 hPa NNW 10 km/h 12 km/h 84% 0.00 mm 228.40 W/m2
09:09 29.0 °C 25.0 °C 1014.0 hPa NNW 8 km/h 12 km/h 83% 0.00 mm 239.24 W/m2
09:14 29.0 °C 25.0 °C 1014.0 hPa NW 8 km/h 12 km/h 81% 0.00 mm 246.77 W/m2
09:19 30.0 °C 25.0 °C 1014.0 hPa NW 12 km/h 16 km/h 79% 0.00 mm 266.49 W/m2
09:24 29.0 °C 25.0 °C 1014.0 hPa North 15 km/h 16 km/h 80% 0.00 mm 192.27 W/m2
09:29 29.0 °C 25.0 °C 1013.7 hPa NNW 15 km/h 16 km/h 81% 0.00 mm 183.67 W/m2
09:34 29.0 °C 25.0 °C 1013.6 hPa North 10 km/h 12 km/h 81% 0.00 mm 176.32 W/m2
09:39 29.0 °C 25.0 °C 1013.6 hPa NW 12 km/h 16 km/h 82% 0.00 mm 140.88 W/m2
09:44 29.0 °C 25.0 °C 1013.6 hPa NNW 12 km/h 16 km/h 82% 0.00 mm 134.81 W/m2
09:49 29.0 °C 25.0 °C 1013.6 hPa NNW 12 km/h 12 km/h 81% 0.00 mm 148.68 W/m2
09:54 29.0 °C 25.0 °C 1013.6 hPa NW 10 km/h 12 km/h 83% 0.00 mm 169.55 W/m2
09:59 28.0 °C 25.0 °C 1013.6 hPa NW 13 km/h 16 km/h 83% 0.00 mm 179.24 W/m2
10:04 29.0 °C 25.0 °C 1013.3 hPa NW 12 km/h 16 km/h 83% 0.00 mm 188.03 W/m2
10:09 29.0 °C 25.0 °C 1013.3 hPa NW 12 km/h 12 km/h 82% 0.00 mm 199.43 W/m2
10:14 29.0 °C 25.0 °C 1013.3 hPa NW 14 km/h 16 km/h 84% 0.00 mm 212.81 W/m2
10:19 29.0 °C 25.0 °C 1013.3 hPa NW 9 km/h 12 km/h 84% 0.00 mm 345.96 W/m2
10:24 29.0 °C 25.0 °C 1013.3 hPa NW 16 km/h 20 km/h 82% 0.00 mm 267.64 W/m2
10:29 29.0 °C 25.0 °C 1013.3 hPa NW 13 km/h 20 km/h 82% 0.00 mm 254.72 W/m2
10:34 29.0 °C 26.0 °C 1013.1 hPa NW 17 km/h 20 km/h 82% 0.00 mm 253.82 W/m2
10:39 29.0 °C 26.0 °C 1012.9 hPa NW 13 km/h 16 km/h 81% 0.00 mm 212.11 W/m2
10:44 29.0 °C 25.0 °C 1012.9 hPa NW 15 km/h 16 km/h 82% 0.00 mm 165.10 W/m2
10:49 29.0 °C 26.0 °C 1012.9 hPa NW 19 km/h 20 km/h 83% 0.00 mm 150.22 W/m2
10:54 29.0 °C 26.0 °C 1012.9 hPa NW 14 km/h 16 km/h 83% 0.00 mm 107.91 W/m2
10:59 29.0 °C 26.0 °C 1012.9 hPa NW 12 km/h 16 km/h 83% 0.00 mm 108.51 W/m2
11:04 29.0 °C 26.0 °C 1012.9 hPa NW 12 km/h 16 km/h 83% 0.00 mm 106.77 W/m2
11:09 29.0 °C 25.0 °C 1012.6 hPa NNW 10 km/h 12 km/h 83% 0.00 mm 100.87 W/m2
11:14 29.0 °C 25.0 °C 1012.6 hPa NW 8 km/h 12 km/h 82% 0.00 mm 134.44 W/m2
11:19 29.0 °C 25.0 °C 1012.6 hPa NW 10 km/h 12 km/h 82% 0.00 mm 157.93 W/m2
11:24 29.0 °C 26.0 °C 1012.6 hPa WNW 8 km/h 12 km/h 81% 0.00 mm 171.80 W/m2
11:29 29.0 °C 26.0 °C 1012.6 hPa South 5 km/h 8 km/h 81% 0.00 mm 183.89 W/m2
11:34 30.0 °C 26.0 °C 1012.3 hPa SSW 9 km/h 12 km/h 80% 0.00 mm 180.15 W/m2
11:39 30.0 °C 26.0 °C 1012.3 hPa South 10 km/h 12 km/h 81% 0.00 mm 161.92 W/m2
11:44 30.0 °C 26.0 °C 1012.3 hPa SSW 8 km/h 12 km/h 80% 0.00 mm 161.60 W/m2
11:49 29.0 °C 26.0 °C 1012.1 hPa South 10 km/h 12 km/h 81% 0.00 mm 155.95 W/m2
11:54 30.0 °C 26.0 °C 1011.9 hPa South 9 km/h 12 km/h 80% 0.00 mm 137.72 W/m2
11:59 30.0 °C 26.0 °C 1011.9 hPa South 7 km/h 12 km/h 80% 0.00 mm 133.20 W/m2
12:04 30.0 °C 26.0 °C 1011.9 hPa South 10 km/h 12 km/h 80% 0.00 mm 138.31 W/m2
12:09 30.0 °C 26.0 °C 1011.9 hPa South 7 km/h 12 km/h 80% 0.00 mm 140.56 W/m2
12:14 30.0 °C 26.0 °C 1011.9 hPa SSW 9 km/h 12 km/h 80% 0.00 mm 165.96 W/m2
12:19 30.0 °C 26.0 °C 1011.8 hPa South 9 km/h 12 km/h 79% 0.00 mm 298.67 W/m2
12:24 31.0 °C 26.0 °C 1011.6 hPa SSW 7 km/h 12 km/h 78% 0.00 mm 420.15 W/m2
12:29 31.0 °C 26.0 °C 1011.6 hPa South 8 km/h 12 km/h 74% 0.00 mm 411.17 W/m2
12:34 32.0 °C 26.0 °C 1011.2 hPa SW 6 km/h 8 km/h 73% 0.00 mm 465.31 W/m2
12:39 32.0 °C 26.0 °C 1011.2 hPa NW 7 km/h 12 km/h 72% 0.00 mm 475.83 W/m2
12:44 32.0 °C 26.0 °C 1011.0 hPa NW 8 km/h 8 km/h 71% 0.00 mm 320.30 W/m2
12:49 32.0 °C 26.0 °C 1010.9 hPa South 5 km/h 8 km/h 71% 0.00 mm 413.64 W/m2
12:54 32.0 °C 26.0 °C 1010.8 hPa South 5 km/h 8 km/h 70% 0.00 mm 332.21 W/m2
12:59 32.0 °C 26.0 °C 1010.8 hPa North 15 km/h 16 km/h 70% 0.00 mm 205.60 W/m2
13:04 32.0 °C 26.0 °C 1010.8 hPa North 13 km/h 16 km/h 71% 0.00 mm 161.50 W/m2
13:09 31.0 °C 26.0 °C 1010.5 hPa North 4 km/h 8 km/h 72% 0.00 mm 186.29 W/m2
13:14 31.0 °C 26.0 °C 1010.5 hPa South 6 km/h 12 km/h 75% 0.00 mm 365.29 W/m2
13:19 31.0 °C 26.0 °C 1010.4 hPa SSW 8 km/h 12 km/h 75% 0.00 mm 368.01 W/m2
13:24 31.0 °C 26.0 °C 1010.3 hPa South 10 km/h 12 km/h 75% 0.00 mm 173.75 W/m2
13:29 31.0 °C 26.0 °C 1010.2 hPa South 13 km/h 16 km/h 77% 0.00 mm 173.37 W/m2
13:34 31.0 °C 27.0 °C 1010.2 hPa South 14 km/h 16 km/h 81% 0.00 mm 182.55 W/m2
13:39 31.0 °C 27.0 °C 1010.2 hPa South 11 km/h 16 km/h 81% 0.00 mm 195.12 W/m2
13:44 30.0 °C 27.0 °C 1010.2 hPa South 9 km/h 12 km/h 80% 0.00 mm 222.16 W/m2
13:49 31.0 °C 26.0 °C 1010.1 hPa South 11 km/h 12 km/h 77% 0.00 mm 235.15 W/m2
13:54 31.0 °C 26.0 °C 1010.1 hPa South 10 km/h 12 km/h 79% 0.00 mm 188.77 W/m2
13:59 30.0 °C 26.0 °C 1010.0 hPa South 9 km/h 12 km/h 79% 0.00 mm 125.64 W/m2
14:04 30.0 °C 26.0 °C 1009.9 hPa SSW 8 km/h 12 km/h 79% 0.00 mm 104.89 W/m2
14:09 30.0 °C 26.0 °C 1009.9 hPa South 6 km/h 8 km/h 80% 0.00 mm 76.73 W/m2
14:14 30.0 °C 26.0 °C 1009.9 hPa South 6 km/h 8 km/h 80% 0.00 mm 59.56 W/m2
14:19 30.0 °C 26.0 °C 1009.9 hPa South 8 km/h 12 km/h 82% 0.00 mm 69.23 W/m2
14:24 30.0 °C 26.0 °C 1009.9 hPa SSE 15 km/h 16 km/h 82% 0.00 mm 85.80 W/m2
14:29 30.0 °C 26.0 °C 1009.9 hPa South 5 km/h 12 km/h 82% 0.00 mm 91.82 W/m2
14:34 29.0 °C 26.0 °C 1009.9 hPa South 9 km/h 12 km/h 82% 0.00 mm 102.76 W/m2
14:39 29.0 °C 26.0 °C 1009.9 hPa South 8 km/h 8 km/h 82% 0.00 mm 111.42 W/m2
14:44 29.0 °C 26.0 °C 1009.5 hPa South 8 km/h 12 km/h 83% 0.00 mm 118.81 W/m2
14:49 29.0 °C 26.0 °C 1009.8 hPa South 8 km/h 12 km/h 83% 0.00 mm 132.51 W/m2
14:54 29.0 °C 26.0 °C 1009.6 hPa South 8 km/h 8 km/h 83% 0.00 mm 138.75 W/m2
14:59 30.0 °C 26.0 °C 1009.5 hPa South 6 km/h 8 km/h 82% 0.00 mm 130.92 W/m2
15:04 30.0 °C 26.0 °C 1009.5 hPa South 5 km/h 8 km/h 81% 0.00 mm 101.09 W/m2
15:09 30.0 °C 26.0 °C 1009.7 hPa South 6 km/h 8 km/h 82% 0.00 mm 92.76 W/m2
15:14 29.0 °C 26.0 °C 1009.5 hPa SSW 9 km/h 12 km/h 82% 0.00 mm 69.11 W/m2
15:19 29.0 °C 26.0 °C 1009.5 hPa SW 5 km/h 8 km/h 82% 0.00 mm 57.81 W/m2
15:24 29.0 °C 26.0 °C 1009.5 hPa West 4 km/h 8 km/h 82% 0.00 mm 54.97 W/m2
15:29 29.0 °C 26.0 °C 1009.5 hPa WSW 4 km/h 8 km/h 81% 0.00 mm 53.15 W/m2
15:34 29.0 °C 26.0 °C 1009.5 hPa SSW 3 km/h 4 km/h 81% 0.00 mm 54.74 W/m2
15:39 29.0 °C 26.0 °C 1009.8 hPa South 4 km/h 4 km/h 81% 0.00 mm 71.94 W/m2
15:44 30.0 °C 26.0 °C 1009.7 hPa SSW 3 km/h 4 km/h 81% 0.00 mm 83.28 W/m2
15:49 30.0 °C 26.0 °C 1009.7 hPa SSW 4 km/h 4 km/h 80% 0.00 mm 87.91 W/m2
15:54 30.0 °C 26.0 °C 1009.5 hPa SSE 5 km/h 12 km/h 80% 0.00 mm 89.40 W/m2
15:59 30.0 °C 26.0 °C 1009.7 hPa SSE 5 km/h 8 km/h 79% 0.00 mm 94.12 W/m2
16:04 30.0 °C 26.0 °C 1009.9 hPa SSW 4 km/h 4 km/h 78% 0.00 mm 102.86 W/m2
16:09 30.0 °C 25.0 °C 1009.9 hPa South 6 km/h 8 km/h 77% 0.00 mm 102.03 W/m2
16:14 30.0 °C 25.0 °C 1009.9 hPa South 5 km/h 8 km/h 77% 0.00 mm 131.56 W/m2
16:19 30.0 °C 26.0 °C 1009.9 hPa South 8 km/h 8 km/h 77% 0.00 mm 136.57 W/m2
16:24 30.0 °C 26.0 °C 1009.9 hPa SSE 6 km/h 8 km/h 77% 0.00 mm 152.67 W/m2
16:29 30.0 °C 26.0 °C 1009.9 hPa South 7 km/h 12 km/h 77% 0.00 mm 152.01 W/m2
16:34 30.0 °C 26.0 °C 1009.9 hPa South 9 km/h 12 km/h 77% 0.00 mm 138.74 W/m2
16:39 30.0 °C 26.0 °C 1009.9 hPa South 8 km/h 8 km/h 77% 0.00 mm 119.32 W/m2
16:44 30.0 °C 26.0 °C 1010.2 hPa South 6 km/h 12 km/h 76% 0.00 mm 92.35 W/m2
16:49 30.0 °C 26.0 °C 1010.2 hPa South 5 km/h 8 km/h 77% 0.00 mm 63.04 W/m2
16:54 30.0 °C 26.0 °C 1010.2 hPa South 7 km/h 8 km/h 78% 0.00 mm 53.87 W/m2
16:59 30.0 °C 26.0 °C 1010.2 hPa SE 4 km/h 4 km/h 78% 0.00 mm 50.37 W/m2
17:04 30.0 °C 26.0 °C 1010.2 hPa SE 3 km/h 4 km/h 78% 0.00 mm 47.51 W/m2
17:09 30.0 °C 26.0 °C 1010.5 hPa Calm     78% 0.00 mm 40.57 W/m2
17:14 30.0 °C 26.0 °C 1010.5 hPa North 2 km/h 4 km/h 79% 0.00 mm 37.56 W/m2
17:19 30.0 °C 26.0 °C 1010.5 hPa NW 5 km/h 8 km/h 79% 0.00 mm 30.91 W/m2
17:24 30.0 °C 25.0 °C 1010.5 hPa NE 6 km/h 8 km/h 78% 0.00 mm 26.12 W/m2
17:29 30.0 °C 24.0 °C 1010.5 hPa NNE 14 km/h 16 km/h 74% 0.00 mm 21.87 W/m2
17:34 30.0 °C 24.0 °C 1010.5 hPa NNE 9 km/h 16 km/h 72% 0.00 mm 17.32 W/m2
17:39 30.0 °C 24.0 °C 1010.7 hPa NE 9 km/h 12 km/h 71% 0.00 mm 9.66 W/m2
17:44 30.0 °C 24.0 °C 1010.8 hPa NE 10 km/h 12 km/h 72% 0.00 mm 5.54 W/m2
17:49 29.0 °C 24.0 °C 1010.9 hPa NE 11 km/h 12 km/h 71% 0.00 mm 3.43 W/m2
17:54 29.0 °C 24.0 °C 1010.9 hPa NE 7 km/h 12 km/h 72% 0.00 mm 0.65 W/m2
17:59 29.0 °C 24.0 °C 1010.9 hPa ENE 10 km/h 12 km/h 72% 0.00 mm 0.00 W/m2
18:04 29.0 °C 24.0 °C 1010.9 hPa NNE 11 km/h 12 km/h 72% 0.00 mm 0.00 W/m2
18:09 29.0 °C 24.0 °C 1011.2 hPa NE 12 km/h 16 km/h 72% 0.00 mm 0.00 W/m2
18:14 29.0 °C 24.0 °C 1011.2 hPa NNE 12 km/h 16 km/h 73% 0.00 mm 0.00 W/m2
18:19 29.0 °C 24.0 °C 1011.2 hPa NNE 8 km/h 12 km/h 73% 0.00 mm 0.00 W/m2
18:24 29.0 °C 24.0 °C 1011.2 hPa NE 6 km/h 8 km/h 73% 0.00 mm 0.00 W/m2
18:29 29.0 °C 24.0 °C 1011.5 hPa NE 5 km/h 8 km/h 74% 0.00 mm 0.00 W/m2
18:34 29.0 °C 24.0 °C 1011.5 hPa NE 3 km/h 4 km/h 74% 0.00 mm 0.00 W/m2
18:39 29.0 °C 24.0 °C 1011.6 hPa NNE 6 km/h 8 km/h 74% 0.00 mm 0.00 W/m2
18:44 29.0 °C 24.0 °C 1011.6 hPa NNE 14 km/h 16 km/h 74% 0.00 mm 0.00 W/m2
18:49 29.0 °C 24.0 °C 1011.6 hPa NNE 9 km/h 12 km/h 75% 0.00 mm 0.00 W/m2
18:54 28.0 °C 24.0 °C 1011.8 hPa NNE 8 km/h 12 km/h 75% 0.00 mm 0.00 W/m2
18:59 28.0 °C 24.0 °C 1011.8 hPa East 5 km/h 8 km/h 75% 0.00 mm 0.00 W/m2
19:04 28.0 °C 24.0 °C 1011.8 hPa ENE 7 km/h 8 km/h 75% 0.00 mm 0.00 W/m2
19:09 28.0 °C 23.0 °C 1011.9 hPa NNE 4 km/h 8 km/h 75% 0.00 mm 0.00 W/m2
19:14 28.0 °C 23.0 °C 1011.9 hPa ESE 3 km/h 4 km/h 75% 0.00 mm 0.00 W/m2
19:19 28.0 °C 23.0 °C 1011.9 hPa NE 4 km/h 8 km/h 75% 0.00 mm 0.00 W/m2
19:24 28.0 °C 23.0 °C 1011.9 hPa NE 10 km/h 12 km/h 75% 0.00 mm 0.00 W/m2
19:29 28.0 °C 23.0 °C 1012.3 hPa ESE 3 km/h 8 km/h 75% 0.00 mm 0.00 W/m2
19:34 28.0 °C 23.0 °C 1012.3 hPa East 5 km/h 8 km/h 75% 0.00 mm 0.00 W/m2
19:39 28.0 °C 23.0 °C 1012.3 hPa ENE 4 km/h 8 km/h 75% 0.00 mm 0.00 W/m2
19:44 28.0 °C 23.0 °C 1012.3 hPa ENE 5 km/h 8 km/h 76% 0.00 mm 0.00 W/m2
19:49 28.0 °C 23.0 °C 1012.3 hPa NE 4 km/h 8 km/h 75% 0.00 mm 0.00 W/m2
19:54 28.0 °C 23.0 °C 1012.3 hPa ENE 5 km/h 8 km/h 75% 0.00 mm 0.00 W/m2
19:59 28.0 °C 23.0 °C 1012.3 hPa NE 4 km/h 4 km/h 76% 0.00 mm 0.00 W/m2
20:04 28.0 °C 23.0 °C 1012.5 hPa SE 3 km/h 4 km/h 76% 0.00 mm 0.00 W/m2
20:09 28.0 °C 23.0 °C 1012.6 hPa ENE 3 km/h 4 km/h 76% 0.00 mm 0.00 W/m2
20:14 28.0 °C 23.0 °C 1012.6 hPa ENE 3 km/h 4 km/h 76% 0.00 mm 0.00 W/m2
20:19 28.0 °C 23.0 °C 1012.6 hPa East 1 km/h 4 km/h 77% 0.00 mm 0.00 W/m2
20:24 28.0 °C 23.0 °C 1012.6 hPa Calm     77% 0.00 mm 0.00 W/m2
20:29 28.0 °C 23.0 °C 1012.6 hPa NNE 2 km/h 4 km/h 77% 0.00 mm 0.00 W/m2
20:34 28.0 °C 23.0 °C 1012.6 hPa SE 1 km/h 4 km/h 77% 0.00 mm 0.00 W/m2
20:39 28.0 °C 23.0 °C 1012.6 hPa ENE 6 km/h 8 km/h 77% 0.00 mm 0.00 W/m2
20:44 27.0 °C 23.0 °C 1012.6 hPa NNE 5 km/h 8 km/h 76% 0.00 mm 0.00 W/m2
20:49 27.0 °C 23.0 °C 1012.6 hPa ENE 4 km/h 4 km/h 76% 0.00 mm 0.00 W/m2
20:54 27.0 °C 23.0 °C 1012.6 hPa Calm   4 km/h 76% 0.00 mm 0.00 W/m2
20:59 27.0 °C 23.0 °C 1012.6 hPa Calm   4 km/h 77% 0.00 mm 0.00 W/m2
21:04 27.0 °C 23.0 °C 1012.8 hPa East 2 km/h 4 km/h 77% 0.00 mm 0.00 W/m2
21:09 27.0 °C 23.0 °C 1013.0 hPa ESE 1 km/h 4 km/h 77% 0.00 mm 0.00 W/m2
21:14 27.0 °C 23.0 °C 1013.0 hPa Calm     77% 0.00 mm 0.00 W/m2
21:19 27.0 °C 23.0 °C 1013.0 hPa ESE 4 km/h 4 km/h 78% 0.00 mm 0.00 W/m2
21:24 27.0 °C 23.0 °C 1012.8 hPa SE 4 km/h 4 km/h 78% 0.00 mm 0.00 W/m2
21:29 27.0 °C 23.0 °C 1012.9 hPa Calm     78% 0.00 mm 0.00 W/m2
21:34 27.0 °C 23.0 °C 1012.8 hPa Calm     78% 0.00 mm 0.00 W/m2
21:39 27.0 °C 23.0 °C 1012.6 hPa ESE 2 km/h 4 km/h 78% 0.00 mm 0.00 W/m2
21:44 27.0 °C 23.0 °C 1012.6 hPa SSE 4 km/h 4 km/h 78% 0.00 mm 0.00 W/m2
21:49 27.0 °C 23.0 °C 1012.6 hPa SSE 2 km/h 4 km/h 78% 0.00 mm 0.00 W/m2
21:54 27.0 °C 23.0 °C 1012.6 hPa Calm     79% 0.00 mm 0.00 W/m2
21:59 27.0 °C 23.0 °C 1012.8 hPa SSE 4 km/h 8 km/h 79% 0.00 mm 0.00 W/m2
22:04 27.0 °C 23.0 °C 1012.9 hPa SE 5 km/h 8 km/h 79% 0.00 mm 0.00 W/m2
22:09 27.0 °C 23.0 °C 1012.8 hPa Calm     79% 0.00 mm 0.00 W/m2
22:14 27.0 °C 23.0 °C 1012.9 hPa ESE 1 km/h 4 km/h 79% 0.00 mm 0.00 W/m2
22:19 27.0 °C 23.0 °C 1012.8 hPa Calm     79% 0.00 mm 0.00 W/m2
22:24 27.0 °C 23.0 °C 1012.8 hPa ESE 1 km/h 4 km/h 80% 0.00 mm 0.00 W/m2
22:29 27.0 °C 23.0 °C 1012.8 hPa Calm     80% 0.00 mm 0.00 W/m2
22:34 27.0 °C 23.0 °C 1012.8 hPa Calm   4 km/h 79% 0.00 mm 0.00 W/m2
22:39 27.0 °C 23.0 °C 1012.6 hPa Calm     79% 0.00 mm 0.00 W/m2
22:44 27.0 °C 23.0 °C 1012.8 hPa Calm     79% 0.00 mm 0.00 W/m2
22:49 27.0 °C 23.0 °C 1012.8 hPa Calm     79% 0.00 mm 0.00 W/m2
22:54 27.0 °C 23.0 °C 1012.8 hPa ENE 4 km/h 4 km/h 79% 0.00 mm 0.00 W/m2
22:59 27.0 °C 23.0 °C 1012.6 hPa ESE 1 km/h 4 km/h 78% 0.00 mm 0.00 W/m2
23:04 27.0 °C 23.0 °C 1012.8 hPa SSE 3 km/h 4 km/h 79% 0.00 mm 0.00 W/m2
23:09 27.0 °C 23.0 °C 1012.8 hPa SE 5 km/h 8 km/h 78% 0.00 mm 0.00 W/m2
23:14 27.0 °C 23.0 °C 1012.8 hPa SE 1 km/h 4 km/h 79% 0.00 mm 0.00 W/m2
23:19 27.0 °C 23.0 °C 1012.8 hPa Calm     79% 0.00 mm 0.00 W/m2
23:24 27.0 °C 23.0 °C 1012.9 hPa Calm     80% 0.00 mm 0.00 W/m2
23:29 27.0 °C 23.0 °C 1013.0 hPa Calm     80% 0.00 mm 0.00 W/m2
23:34 26.0 °C 23.0 °C 1013.0 hPa Calm     80% 0.00 mm 0.00 W/m2
23:39 26.0 °C 23.0 °C 1012.6 hPa Calm   4 km/h 81% 0.00 mm 0.00 W/m2
23:44 26.0 °C 23.0 °C 1012.8 hPa Calm   4 km/h 80% 0.00 mm 0.00 W/m2
23:49 26.0 °C 23.0 °C 1012.8 hPa Calm     81% 0.00 mm 0.00 W/m2
23:54 26.0 °C 23.0 °C 1013.0 hPa Calm     81% 0.00 mm 0.00 W/m2
23:59 26.0 °C 23.0 °C 1013.0 hPa Calm     81% 0.00 mm 0.00 W/m2
PIMOHWEATHER Philippines
Compliments of Weather Underground - 2 mb